Theta_e
343 340 338 338 338 340 340 339 339 339 339 339 339 339 339 338 338 338 338 338 338 336 325 312 311 311 308 308 310 310 310 310 310 311 311 311 311 311 311 311 311 310
339 334 331 332 334 338 340 338 339 339 338 337 337 338 338 338 338 338 337 336 334 328 318 314 315 312 307 308 309 310 310 310 310 311 311 311 311 311 311 310 310 310
338 336 335 335 335 338 339 338 337 338 337 336 336 337 338 337 336 336 335 333 328 320 314 314 314 310 307 309 309 309 310 310 310 311 311 311 311 311 311 310 310 310
336 336 337 337 337 338 338 336 335 336 337 337 336 336 335 333 332 334 333 330 326 320 314 311 310 309 309 309 309 310 310 310 311 310 310 311 311 311 311 312 311 310
335 335 335 335 336 336 337 336 334 335 337 337 336 335 334 332 332 333 332 329 327 322 316 312 312 312 310 310 311 311 310 311 311 310 311 311 312 313 313 313 313 312
333 334 333 333 334 334 335 336 335 335 335 336 336 335 334 333 332 332 331 329 328 325 321 318 315 311 309 309 310 310 310 311 311 310 311 312 315 315 314 313 314 314
332 332 331 332 332 332 332 333 333 334 334 335 335 334 333 332 331 332 330 327 327 327 323 318 313 309 309 310 310 310 311 312 313 314 314 315 316 316 315 315 315 315
329 330 330 330 330 330 330 330 331 331 332 332 332 331 330 329 330 331 330 329 328 326 320 315 312 310 309 310 310 311 313 313 313 315 317 318 316 315 315 316 317 316
326 328 328 328 329 329 329 329 329 329 329 329 329 328 327 326 327 328 329 329 327 323 319 316 314 313 313 313 312 313 316 317 316 316 317 318 316 316 317 317 317 317
323 324 325 326 327 328 328 328 328 327 327 327 326 325 324 322 323 325 327 327 324 321 319 317 316 316 318 318 316 316 318 319 319 318 318 317 316 316 316 317 317 317
318 319 320 321 322 325 326 327 327 327 326 326 325 324 322 320 318 321 324 324 323 321 318 317 318 319 319 319 318 318 318 318 318 317 316 315 315 316 316 316 316 316
314 314 315 315 316 319 321 323 324 325 325 325 324 323 322 321 319 318 319 320 322 322 320 319 320 318 316 318 319 318 316 315 315 314 314 314 315 316 316 316 316 316
313 312 313 313 313 314 316 318 319 321 321 322 321 321 321 321 320 319 317 317 319 320 318 318 318 316 314 315 317 316 315 314 314 314 314 314 315 315 315 315 315 315
312 312 312 312 312 312 313 315 316 316 317 318 318 317 317 317 318 317 317 316 316 316 315 315 315 314 314 314 314 315 315 314 314 314 314 314 314 314 314 315 315 315
311 311 312 312 312 312 312 313 313 314 315 316 316 316 316 316 315 315 316 316 315 314 314 314 315 315 315 315 315 315 315 314 314 314 314 314 314 314 314 314 314 314
312 312 311 311 312 312 313 313 313 313 314 315 315 315 315 315 315 315 315 315 315 314 314 315 315 315 315 314 314 314 314 314 314 314 314 314 314 313 313 312 312 312
314 313 313 313 313 312 312 312 312 312 313 313 314 314 314 314 314 314 314 313 313 313 313 314 314 313 313 313 313 313 313 313 313 313 313 313 313 312 312 311 311 311
314 314 314 314 313 313 313 312 312 312 312 312 312 312 312 313 313 312 312 312 312 311 311 311 312 312 312 312 311 311 311 312 312 312 312 312 311 311 310 310 310 311
313 313 313 314 314 314 314 313 311 311 311 311 311 311 311 310 310 310 310 310 310 310 310 310 310 310 311 311 311 310 310 310 310 310 310 310 309 308 308 308 308 309
312 312 313 313 313 312 311 310 309 309 309 309 309 308 308 308 307 307 307 306 306 306 306 306 306 306 307 307 307 307 307 308 308 307 307 307 306 305 305 305 305 306
311 311 311 311 310 309 309 308 308 308 307 307 307 306 306 306 305 305 304 303 303 303 302 302 302 302 302 302 302 302 303 303 303 303 304 304 303 303 303 303 302 303
310 310 310 310 309 309 308 308 308 307 306 306 306 306 306 305 305 305 304 304 303 303 302 302 302 302 302 301 300 300 301 301 301 301 301 301 301 302 302 302 302 303
309 309 309 309 309 308 308 307 307 307 306 306 306 305 305 305 305 305 305 305 305 304 304 304 304 304 304 303 302 302 301 301 302 301 301 302 302 303 304 304 304 305
308 308 308 308 308 307 307 307 307 306 306 306 305 305 305 304 305 304 304 304 304 304 304 304 304 304 303 303 303 302 302 302 302 302 302 303 304 304 305 305 305 305
307 307 307 307 307 307 307 306 306 306 305 305 304 304 304 304 304 304 304 303 303 303 303 303 303 303 303 302 302 302 302 301 302 302 303 303 304 304 304 305 305 305
307 307 307 308 307 307 306 306 305 305 304 304 304 304 304 303 303 303 303 303 303 302 302 302 302 302 302 302 302 302 301 301 301 302 303 303 304 304 304 305 305 305
Wind_Speed
19 19 21 23 24 26 27 26 25 25 27 30 31 31 31 32 36 38 40 40 37 36 33 30 31 30 26 25 24 22 21 19 18 17 15 14 13 13 12 10 10 11
17 16 18 20 22 24 24 24 24 23 24 26 28 29 29 30 33 36 39 40 36 32 29 27 29 28 27 27 26 24 22 21 19 18 16 15 13 13 11 10 10 11
15 18 20 21 22 22 22 22 23 23 23 24 25 27 28 28 30 34 37 35 30 25 23 25 27 27 27 28 28 26 24 22 20 18 16 15 14 12 10 10 10 11
18 19 20 21 22 21 21 22 22 22 22 21 23 25 25 24 26 31 34 31 26 22 23 26 27 28 30 30 29 27 24 21 19 18 17 16 15 12 10 9 10 12
16 17 18 19 20 20 22 22 21 20 19 19 21 24 24 23 24 27 29 29 25 22 23 25 27 31 33 31 29 27 24 21 20 19 18 16 15 13 11 11 12 14
14 16 17 17 18 18 21 22 20 19 19 21 23 23 22 20 20 20 23 26 25 25 25 25 29 34 36 32 30 28 24 21 20 20 19 16 14 13 13 14 14 15
14 15 14 15 17 17 18 18 17 17 19 22 23 20 17 17 17 18 22 25 26 28 27 26 31 36 36 32 30 27 24 22 20 19 18 16 14 14 15 16 17 17
14 12 10 11 13 13 14 16 17 16 17 20 21 17 15 15 15 19 23 26 28 28 26 26 31 35 35 32 30 26 23 22 21 19 17 16 16 17 17 17 18 19
14 12 12 12 11 11 13 16 17 15 14 17 17 14 14 14 15 19 22 26 29 29 26 26 30 32 31 30 28 25 22 20 21 20 18 17 17 18 18 17 18 19
14 14 15 15 14 13 14 16 16 15 15 16 16 16 16 16 16 19 21 23 26 26 24 26 28 27 25 25 25 23 19 17 17 17 17 18 20 21 20 19 19 19
19 18 17 17 17 16 16 17 16 14 16 16 15 14 14 14 15 17 18 19 20 22 23 24 25 24 22 21 20 20 20 20 19 19 19 21 23 23 23 22 21 21
22 23 22 21 21 19 18 19 19 18 18 18 16 11 9 10 12 15 17 17 17 19 21 20 21 24 25 22 20 22 25 25 25 24 25 26 25 22 21 21 21 22
22 23 24 24 23 20 19 19 20 20 21 21 21 17 13 11 11 13 18 20 19 19 21 21 22 25 28 27 26 26 27 27 27 29 31 32 31 28 27 26 25 24
23 23 24 24 24 22 20 18 18 18 19 20 21 21 21 20 18 18 21 23 24 24 25 26 26 27 28 28 28 28 28 29 31 32 34 34 35 35 33 31 29 27
27 27 25 24 23 22 21 20 18 18 18 18 18 18 19 19 19 20 22 24 26 26 27 27 27 27 28 28 29 30 31 32 33 33 36 37 37 37 35 32 29 28
24 25 25 23 22 21 20 19 18 18 18 18 17 17 16 15 14 14 15 17 21 24 26 27 28 29 31 33 34 34 34 35 36 38 40 40 38 38 36 34 32 31
17 18 19 19 19 20 19 17 18 18 18 18 19 18 18 18 17 17 16 17 19 22 25 28 31 33 33 34 35 34 34 35 36 38 38 38 37 37 37 37 35 34
16 15 15 15 16 17 17 17 19 20 19 20 21 21 21 22 22 23 24 25 25 26 27 28 30 32 32 32 32 31 32 33 35 36 36 37 38 37 38 38 36 35
17 16 15 15 16 15 14 17 20 21 20 22 23 23 23 23 23 24 24 25 26 27 28 29 30 31 32 32 32 32 31 32 34 36 37 38 39 40 40 40 38 38
18 17 16 16 16 16 16 17 19 19 20 21 21 22 22 21 22 22 23 24 25 25 26 27 29 30 30 30 31 31 31 32 35 37 38 40 41 41 41 41 40 39
19 17 16 16 16 17 17 17 16 16 17 17 16 17 17 17 18 19 21 23 24 25 26 27 28 29 30 29 29 29 29 31 33 36 38 40 41 42 42 43 43 42
19 17 17 16 15 14 14 13 12 13 14 13 13 14 14 15 16 17 18 20 22 23 25 26 26 27 28 30 30 29 29 29 32 34 36 38 39 39 39 39 37 36
19 19 17 17 16 15 14 13 13 14 15 15 15 15 16 17 17 18 19 19 21 22 23 24 24 22 24 27 28 28 28 27 27 30 32 33 33 31 30 29 28 27
20 20 18 17 17 17 17 15 15 17 17 17 17 18 19 20 20 21 21 21 22 23 23 25 25 23 23 26 27 29 29 25 23 25 28 28 26 25 24 24 25 25
20 19 18 18 17 17 17 17 17 17 18 18 19 19 21 22 22 23 24 24 25 26 26 26 27 26 25 26 26 28 29 26 22 24 26 25 24 25 24 25 26 26
20 19 17 16 16 16 16 16 17 18 18 19 20 21 22 23 23 25 27 27 27 27 27 27 27 26 25 25 26 27 27 25 23 24 25 24 23 24 24 24 26 25
Wind_Direction
271 278 280 281 280 279 278 278 277 275 274 274 275 276 273 261 248 241 234 228 224 223 222 220 222 223 224 227 228 227 226 230 235 238 243 246 250 257 265 278 288 295
270 284 284 285 284 281 281 281 279 276 277 280 279 276 273 263 253 246 236 228 222 219 216 215 220 223 225 230 230 227 227 230 233 237 242 246 250 255 263 273 283 294
279 283 281 281 279 274 274 278 279 274 275 283 285 281 273 262 254 248 237 227 219 217 217 218 223 229 231 232 230 229 229 231 233 237 240 244 247 251 258 270 285 300
289 286 282 279 277 273 272 277 279 274 273 280 284 279 270 261 259 254 241 225 217 221 224 224 229 233 232 230 230 231 230 230 232 236 239 241 244 248 256 271 291 304
307 299 292 287 283 277 277 281 284 283 279 274 273 275 277 278 277 265 242 222 216 223 226 229 232 230 227 227 229 230 231 230 232 236 238 240 244 250 262 276 290 301
322 314 307 303 297 286 284 287 288 287 283 276 276 285 293 291 282 262 234 218 219 226 228 228 228 227 227 229 230 232 232 231 233 237 239 241 245 253 268 279 286 292
327 323 314 309 305 296 289 287 283 277 274 277 283 290 294 289 277 255 234 225 229 230 226 225 225 227 229 231 232 234 234 233 235 238 242 244 248 257 269 277 281 282
335 327 315 308 308 301 293 288 282 274 270 276 283 283 281 279 270 254 243 240 238 230 222 224 228 230 232 234 234 234 233 235 239 241 243 247 255 265 270 271 273 275
345 335 327 318 310 304 305 301 291 280 275 278 279 274 269 265 257 251 248 245 239 230 225 227 229 230 232 233 233 232 232 238 244 247 248 252 259 266 268 267 265 266
358 347 340 332 322 313 312 310 301 289 282 279 277 275 274 268 257 252 249 244 238 234 230 228 228 228 228 231 234 234 232 233 239 244 249 257 265 267 265 263 260 260
8 2 356 348 340 329 317 311 305 294 287 284 281 280 279 272 262 254 248 241 236 237 233 227 226 225 224 230 234 232 231 232 235 241 251 261 266 267 264 260 259 259
4 2 359 356 352 343 331 321 312 301 294 289 285 280 275 269 264 258 250 237 229 233 231 226 227 227 226 227 225 228 236 241 244 251 259 262 261 260 260 259 261 262
350 349 349 350 350 348 343 334 324 315 306 297 291 286 277 266 255 253 250 242 234 234 232 228 229 232 234 234 233 239 247 251 257 263 266 265 262 259 259 262 264 264
338 338 338 339 339 339 338 337 332 325 317 308 300 293 285 275 264 260 259 253 245 242 242 242 241 244 248 250 251 254 256 259 264 265 266 267 265 262 265 269 269 265
333 333 333 332 331 330 329 330 329 326 322 315 306 299 292 286 279 273 268 263 257 254 255 255 254 255 260 265 266 264 263 264 265 263 265 267 264 263 266 270 268 264
328 329 329 327 325 323 322 323 322 320 318 311 304 298 291 286 281 274 268 264 259 255 256 258 260 262 264 267 268 267 266 266 265 264 265 265 263 263 266 269 269 267
318 319 320 318 317 316 315 313 310 309 307 301 296 292 286 279 275 271 269 266 259 255 256 257 259 261 263 264 264 263 262 261 261 260 261 262 265 267 268 270 271 270
309 307 308 307 307 308 305 300 299 300 298 295 291 289 286 283 279 278 277 275 272 269 268 266 265 265 264 264 263 261 260 260 260 261 262 264 267 269 270 270 270 269
304 301 299 298 298 297 295 294 293 290 288 288 288 287 287 285 283 281 280 280 278 277 276 276 275 273 270 269 267 266 266 266 265 266 266 266 267 268 269 269 269 270
300 299 296 295 294 291 293 297 296 292 291 290 290 291 292 291 290 289 289 289 288 287 285 284 283 281 279 278 276 275 274 273 271 270 270 269 268 268 267 268 269 269
297 296 294 294 294 294 297 301 299 297 298 298 297 297 297 297 297 297 298 299 299 298 297 295 293 291 289 287 284 283 280 277 275 273 272 272 271 270 271 271 271 271
293 293 293 294 294 293 295 297 295 298 302 301 299 300 300 301 301 301 300 300 300 300 300 299 297 296 294 292 288 284 280 277 277 277 276 276 276 275 274 273 272 270
286 290 293 293 293 293 292 292 293 297 299 298 297 298 299 299 300 300 299 298 298 298 297 297 295 293 292 291 288 285 282 279 279 280 280 278 277 275 273 270 267 264
283 288 289 287 289 291 290 290 291 293 293 292 293 295 297 298 298 297 296 295 295 294 292 292 291 289 287 286 285 286 285 282 278 277 275 273 272 270 267 265 263 260
283 286 285 282 282 284 284 285 288 289 289 290 292 295 296 297 297 296 295 294 293 293 290 289 289 288 284 282 280 279 281 281 276 272 271 270 268 268 266 265 264 263
283 284 281 277 278 279 278 279 283 286 289 292 294 296 296 296 296 295 295 294 293 292 290 288 287 285 282 280 278 276 277 278 274 268 267 267 265 266 266 266 264 263